Regional Weather Roundup
Issued by NWS Cleveland, OH

Home | Current Version | Previous Version | Text Only | Print | Product List | Glossary Off
Versions: 1 2 3 4 5 6 7 8 9 10 11 12 13 14 15 16 17 18 19 20 21 22 23 24 25 26 27 28 29 30 31 32 33 34 35 36 37 38 39 40 41 42 43 44 45 46 47 48 49 50

000
ASUS41 KCLE 031910
RWRCLE
OHIO REGIONAL WEATHER ROUNDUP
NATIONAL WEATHER SERVICE WILMINGTON, OH
300 PM EDT FRI JUL 03 2015

NOTE: "FAIR" INDICATES FEW OR NO CLOUDS BELOW 12,000 FEET WITH NO
SIGNIFICANT WEATHER AND/OR OBSTRUCTIONS TO VISIBILITY.

OHZ001>008-015>018-024>027-034-035-043-044-032000-
   NORTHWEST OHIO

CITY           SKY/WX    TMP DP  RH WIND       PRES   REMARKS
DEFIANCE       CLOUDY    74  55  51 NE6       29.95F
FINDLAY        CLOUDY    76  56  49 NE7       29.94F
TOLEDO EXPRESS PTSUNNY   72  56  57 N10       29.96F
TOLEDO EXEC    CLOUDY    70  54  56 E7        29.97S
LIMA           CLOUDY    75  61  61 VRB7      29.93F
$$

OHZ009>014-019>023-028>033-038-089-032000-
   NORTHEAST OHIO

CITY           SKY/WX    TMP DP  RH WIND       PRES   REMARKS
CLE-HOPKINS    PTSUNNY   73  56  54 N12       29.97F
CLE-LAKEFRONT  PTSUNNY   72  58  61 NE14      29.94F
CUY CO. ARPT   NOT AVBL
LORAIN-ELYRIA  PTSUNNY   75  54  47 N5        29.95F
ASHTABULA      MOSUNNY   75  50  41 VRB3      29.97F
AKRON-CANTON   PTSUNNY   77  58  51 NE6       29.95F
WOOSTER        PTSUNNY   76  58  53 CALM      29.95F
MANSFIELD      PTSUNNY   76  58  53 NE7       29.94F
YOUNGSTOWN     CLOUDY    75  55  49 CALM      29.96F
$$

OHZ042-051>053-060>062-070>072-077>081-032000-
  SOUTHWEST OHIO

CITY           SKY/WX    TMP DP  RH WIND       PRES   REMARKS
CINC-COVINGTON CLOUDY    76  65  68 N7        29.87F
CINC-LUNKEN    CLOUDY    75  66  73 NE7       29.87F
HAMILTON       CLOUDY    74  65  73 E10       29.89S
DAYTON         CLOUDY    77  63  61 E8        29.91F
WRIGHT-PAT AFB PTSUNNY   75  60  60 E9        29.90F
DAYTON GENERAL CLOUDY    73  61  65 E6        29.89F
WILMINGTON     LGT RAIN  69  62  78 NE7       29.89F
$$

OHZ036-037-039>041-045>050-054>059-063>069-073>076-082>088-032000-
  CENTRAL AND SOUTHEAST OHIO

CITY           SKY/WX    TMP DP  RH WIND       PRES   REMARKS
COLUMBUS       LGT RAIN  73  62  68 E6        29.91F
OSU AIRPORT    LGT RAIN  73  62  68 E6        29.92S
BOLTON FIELD   RAIN      72  64  78 N3        29.92F
RICKENBACK AFB CLOUDY    73  62  69 NE9       29.90S
NEWARK         CLOUDY    75  60  59 E8        29.91F
MARION         CLOUDY    76  59  55 NE7       29.93F
LANCASTER      CLOUDY    73  64  73 NE8       29.91F
ZANESVILLE     CLOUDY    76  60  57 E6        29.91F
NEW PHILLY     PTSUNNY   77  59  53 CALM      29.93F
$$



USA.gov is the U.S. government's official web portal to all federal, state and local government web resources and services.